Regional Weather Roundup
Issued by NWS

Home | Current Version | Previous Version | Graphics & Text | Print | Product List | Glossary On
Versions: 1 2 3 4 5 6 7 8 9 10 11 12 13 14 15 16 17 18 19 20 21 22 23 24 25 26 27 28 29 30 31 32 33 34 35 36 37 38 39 40 41 42 43 44 45 46 47 48 49 50
000
ASUS45 KTFX 260510
RWRMT
MONTANA REGIONAL WEATHER ROUNDUP
NATIONAL WEATHER SERVICE GREAT FALLS MT
1100 PM MDT WED APR 25 2018

NOTE: "FAIR" INDICATES FEW OR NO CLOUDS BELOW 12000 FEET WITH NO
SIGNIFICANT WEATHER AND/OR OBSTRUCTIONS TO VISIBILITY.

MTZ001>007-043-260600-
WEST OF THE DIVIDE

CITY           SKY/WX    TMP DP  RH WIND       PRES   REMARKS
KALISPELL      FAIR      45  32  60 CALM      30.13S
MISSOULA       FAIR      49  29  46 N3        30.15R
BUTTE          FAIR      45  29  53 CALM      30.26R
MULLAN PASS    FAIR      46  25  43 NW3       30.23R
ANACONDA         N/A     43  30  61 SE5       30.25R
DEER LODGE       N/A     43  32  65 W10       30.26R
HAMILTON         N/A     52  30  43 MISG      30.17S
$$

MTZ008-052>055-260600-
SOUTHWEST MONTANA

CITY           SKY/WX    TMP DP  RH WIND       PRES   REMARKS
BOZEMAN        FAIR      46  30  53 W15       30.25R
DILLON         FAIR      43  31  62 NE16      30.21R
ENNIS          CLEAR     43  32  65 NE18G24   30.26R
W YELLOWSTONE  FAIR      41  27  56 NE6       30.23S
$$

MTZ009-010-012-014-046-048-049-054-260600-
EAST SLOPES AND CENTRAL MONTANA

CITY           SKY/WX    TMP DP  RH WIND       PRES   REMARKS
CUT BANK       FAIR      42  28  57 S5        30.19F
GREAT FALLS    FAIR      38  31  76 S9        30.23S WCI  31
MALMSTROM AFB  FAIR      36  31  81 SW9       30.23S WCI  29
HELENA         FAIR      46  34  62 SW8       30.24S
AUGUSTA        FAIR      35  28  74 CALM      30.22F
BOWMANS CRNR   FAIR      41  31  68 SW5       30.21F
CHOTEAU          N/A     41  28  60 SW5       30.23F
FAIRFIELD      FAIR      40  31  69 SE3       30.21F
POWER          FAIR      38  30  73 CALM      30.21F
RAYNESFORD     FAIR      41  30  65 CALM      30.24R
ULM            FAIR      38  32  81 SE8       30.23S WCI  32
WHITE SULPHUR    N/A     32  28  86 SE5       30.26R
$$

MTZ011-013-016-021-045-047-050-051-260600-
NORTH CENTRAL MONTANA

CITY           SKY/WX    TMP DP  RH WIND       PRES   REMARKS
HAVRE          FAIR      38  30  73 MISG      30.18S
LEWISTOWN      FAIR      36  31  82 SW9       30.23S WCI  29
N BAR RANCH    FAIR      37  32  81 NW6       30.25R
CHINOOK          N/A     43  34  70 SW5       30.18R
GEYSER         FAIR      36  29  77 SW12      30.23S WCI  28
GRASS RANGE    FAIR      42  34  72 W13       30.19S
STANFORD       FAIR      40  29  65 W7        30.23F
$$

MTZ017>020-022>027-061-062-260600-
NORTHEAST MONTANA

CITY           SKY/WX    TMP DP  RH WIND       PRES   REMARKS
GLASGOW        FAIR      46  30  53 NW8       30.10R
JORDAN           N/A     46  33  60 W9        30.13R
MALTA          CLEAR     50  28  43 NW13      30.12S
SIDNEY         FAIR      49  32  52 N13       30.05R
WOLF POINT     FAIR      48  32  53 N10       30.09R
PLENTYWOOD       N/A     45  30  57 CALM      30.06S
POPLAR           N/A     46  30  53 N5        30.09R
$$

MTZ028>42-056>058-260600-
SOUTHCENTRAL AND SOUTHEAST MONTANA

CITY           SKY/WX    TMP DP  RH WIND       PRES   REMARKS
BAKER          FAIR      49  31  49 N12       30.04R
BILLINGS       FAIR      45  34  65 W6        30.23R
LIVINGSTON     FAIR      38  31  76 S3        30.26R
MILES CITY     FAIR      52  33  48 N15G24    30.10R
BIG TIMBER     CLEAR     41  32  70 W3        30.28R
FORSYTH          N/A     52  36  54 W10       30.14R
HARLOWTON      FAIR      39  29  65 NW10      30.25R
LAUREL           N/A     43  34  70 W6        30.25
$$

REGIONAL REPORTS...DAKOTAS

CITY           SKY/WX    TMP DP  RH WIND       PRES   REMARKS
WILLISTON      FAIR      50  31  48 N13       30.03R
MINOT          FAIR      50  33  52 N13       29.95R
DICKINSON      FAIR      50  32  50 N10       29.96R
BEACH          FAIR      45  28  53 N9        30.06R
CROSBY         FAIR      41  30  65 NW10      30.04R
TIOGA          FAIR      46  30  53 N14       30.02R
WATFORD CITY   FAIR      48  32  53 N10       30.02R
BISMARCK       FAIR      56  35  45 NW20G30   29.85R
GRAND FORKS    MOCLDY    52  36  54 NW22G29   29.77R
FARGO          FAIR      51  36  56 S18       29.78F
BUFFALO SD       N/A     52  30  43 N22       29.92R
RAPID CITY     FAIR      56  32  40 N18G28    29.95R
$$

REGIONAL REPORTS...WYOMING/IDAHO/WASHINGTON

CITY           SKY/WX    TMP DP  RH WIND       PRES   REMARKS
GILLETTE       FAIR      46  31  55 NW17      30.10R
SHERIDAN       CLOUDY    45  36  70 W15       30.21R
BUFFALO WY     FAIR      48  29  47 NW25G39   30.17R
CODY           LGT RAIN  41  36  82 NW5       30.28R
YELLOWSTONE LA   N/A     35  25  66 VRB3      30.29R
IDAHO FALLS    FAIR      50  31  48 SW3       30.14R
SALMON         FAIR      51  26  37 E3        30.17R
BOISE          FAIR      58  35  42 W6        30.09S
SPOKANE        FAIR      57  36  45 SW6       30.12R
$$

REGIONAL REPORTS...ALBERTA

CITY           SKY/WX    TMP DP  RH WIND       PRES   REMARKS
CALGARY        PTCLDY    45  30  57 S7        30.13S
CARDSTON         N/A     43  30  61 S5          N/A
EDMONTON       CLEAR     48  21  34 SW5       30.03S
FORT MCMURRAY  CLEAR     50  23  34 SW10      29.87S
HIGH LEVEL     PTCLDY    57  28  33 NW8       29.87R
LETHBRIDGE     CLEAR     39  30  70 S8G18     30.16S
LLOYDMINSTER   CLEAR     39  27  60 W9        30.05S
MEDICINE HAT   CLEAR     39  27  60 S5        30.15S
PEACE RIVER    PTCLDY    43  32  65 SW7       29.96S
PINCHER CREEK  CLEAR     37  30  75 W10       30.16S WCI  30
WATERTON GATE    N/A     43  28  56 S12         N/A
$$

REGIONAL REPORTS...SASKATCHEWAN

CITY           SKY/WX    TMP DP  RH WIND       PRES   REMARKS
CORONACH         N/A     39  34  81 NW5         N/A
CYPRESS HILLS    N/A     37  21  52 W2          N/A
ESTEVAN        CLEAR     41  28  60 NW9       30.02R
MOOSE JAW        N/A     32  23  69 W8          N/A  WCI  25
PRINCE ALBERT  CLEAR     36  27  69 W2        30.05S
REGINA         CLEAR     37  25  60 NW7       30.06R
ROCKGLEN         N/A     41  30  65 NW5         N/A
SASKATOON      CLEAR     39  30  70 W3        30.08S
SWIFT CURRENT  CLEAR     43  25  49 NW6       30.11R
VAL MARIE        N/A     36  27  69 NW10        N/A  WCI  28
$$



USA.gov is the U.S. government's official web portal to all federal, state and local government web resources and services.